TimeMST,TemperatureF,Dew PointF,Humidity,Sea Level PressureIn,VisibilityMPH,Wind Direction,Wind SpeedMPH,Gust SpeedMPH,PrecipitationIn,Events,Conditions,WindDirDegrees,DateUTC
12:53 AM,19.0,5.0,54,30.44,10.0,SSW,9.2,-,N/A,,Clear,200,2013-01-21 07:53:00
1:53 AM,19.9,6.1,55,30.41,10.0,South,6.9,-,N/A,,Clear,180,2013-01-21 08:53:00
2:53 AM,19.0,3.9,52,30.42,10.0,SSW,5.8,-,N/A,,Clear,200,2013-01-21 09:53:00
3:53 AM,18.0,5.0,57,30.42,10.0,SSW,5.8,-,N/A,,Clear,200,2013-01-21 10:53:00
4:53 AM,16.0,3.9,59,30.45,10.0,South,6.9,-,N/A,,Clear,190,2013-01-21 11:53:00
5:53 AM,17.1,3.9,56,30.46,10.0,SSW,10.4,-,N/A,,Clear,200,2013-01-21 12:53:00
6:53 AM,18.0,3.0,52,30.46,10.0,SSW,8.1,-,N/A,,Clear,210,2013-01-21 13:53:00
7:53 AM,17.1,3.9,56,30.47,10.0,SSW,9.2,-,N/A,,Clear,200,2013-01-21 14:53:00
8:53 AM,19.0,3.9,52,30.47,10.0,South,6.9,-,N/A,,Clear,180,2013-01-21 15:53:00
9:53 AM,21.9,3.9,46,30.48,10.0,SSW,6.9,-,N/A,,Clear,200,2013-01-21 16:53:00
10:53 AM,25.0,7.0,46,30.48,10.0,SSW,9.2,-,N/A,,Clear,200,2013-01-21 17:53:00
11:53 AM,28.9,8.1,41,30.44,10.0,SW,13.8,-,N/A,,Clear,230,2013-01-21 18:53:00
12:53 PM,32.0,12.0,44,30.39,10.0,SW,13.8,-,N/A,,Clear,230,2013-01-21 19:53:00
1:53 PM,36.0,12.9,39,30.37,10.0,SW,11.5,-,N/A,,Clear,230,2013-01-21 20:53:00
2:53 PM,37.0,15.1,41,30.36,10.0,WSW,10.4,-,N/A,,Clear,240,2013-01-21 21:53:00
3:53 PM,37.0,16.0,42,30.35,10.0,SW,10.4,-,N/A,,Clear,230,2013-01-21 22:53:00
4:53 PM,34.0,14.0,44,30.37,10.0,WSW,11.5,-,N/A,,Clear,240,2013-01-21 23:53:00
5:53 PM,28.0,10.9,49,30.39,10.0,SW,10.4,-,N/A,,Clear,230,2013-01-22 00:53:00
6:53 PM,26.1,9.0,49,30.40,10.0,WSW,11.5,-,N/A,,Clear,250,2013-01-22 01:53:00
7:53 PM,25.0,9.0,51,30.41,10.0,SW,13.8,-,N/A,,Clear,220,2013-01-22 02:53:00
8:53 PM,24.1,9.0,53,30.41,10.0,SSW,10.4,-,N/A,,Clear,210,2013-01-22 03:53:00
9:53 PM,21.0,9.0,60,30.42,10.0,SW,10.4,-,N/A,,Clear,220,2013-01-22 04:53:00
10:53 PM,24.1,9.0,53,30.40,10.0,SW,10.4,-,N/A,,Clear,220,2013-01-22 05:53:00
11:53 PM,19.9,8.1,60,30.40,10.0,SW,13.8,-,N/A,,Clear,230,2013-01-22 06:53:00